User: anonymous   Login
Location: Montr�al
(45.5000°N, 73.5830°W)
Time: 00:06:55
(UTC-05:00)
Language:

Cosmos 1470 Rocket - Orbit

View from above orbital plane
View from above orbital plane
View from above satellite
View from above satellite

Ground track
Ground track

The orbit data is extracted from the following two-line orbital elements,

1 14148U 83061B   17052.97131740 +.00000101 +00000-0 +93665-5 0  9999
2 14148 082.5198 017.4932 0021505 356.9076 064.3640 14.83213019796634
Epoch (UTC): 21 February 2017 23:18:41
Eccentricity: 0.0021505
inclination: 82.5198°
perigee height: 604 km
apogee height: 634 km
right ascension of ascending node: 17.4932°
argument of perigee: 356.9076°
revolutions per day: 14.83213019
mean anomaly at epoch: 64.3640°
orbit number at epoch: 79663

The dashed part of the orbit path shows where the satellite is in the earth's shadow,  

DLR